^^
Anthem North Phoenix Station Historical Data
 
Daily Summary for August 21, 2019 Units:  English    Metric   Both
Daily Weekly Monthly Yearly Custom
  Current: High: Low: Average:
Temperature: 108.3 °F 109.9 °F 84.3 °F 96.4 °F
Dew Point: 22.8 °F 38.6 °F 17.9 °F 31.8 °F
Humidity: 5% 16% 4% 11%
Wind Speed: 7mph 9mph 0mph 3.6mph
Wind Gust: 13mph 14mph - -
WindSSW - - SE
Pressure: 29.66 in 29.81 in 29.66 in -
Precipitation: 0 in      
Historical Graphs
 
 
Tabular Data for August 21, 2019
Time Temperature Dew Point Pressure Wind Wind Speed Wind Gust Humidity Rainfall Rate (Hourly)
00:00 89 °F 37 °F 29.74 in North 3 mph 6 mph 16% 0 in
00:05 90 °F 36.1 °F 29.74 in NNW 5.3 mph 8.1 mph 15% 0 in
00:10 90.7 °F 36.7 °F 29.74 in NNE 5 mph 8 mph 15% 0 in
00:15 91.1 °F 37 °F 29.74 in NNE 4.4 mph 4.6 mph 15% 0 in
00:20 91.3 °F 37.2 °F 29.74 in NNE 3 mph 9 mph 15% 0 in
00:25 91.3 °F 35.4 °F 29.74 in North 3.7 mph 4.6 mph 14% 0 in
00:30 90.9 °F 36.9 °F 29.74 in NNE 5 mph 9 mph 15% 0 in
00:35 90.6 °F 36.6 °F 29.74 in NE 3.9 mph 4.6 mph 15% 0 in
00:40 90.5 °F 36.5 °F 29.74 in North 6 mph 9 mph 15% 0 in
00:45 90.5 °F 36.5 °F 29.74 in NE 5.1 mph 8.1 mph 15% 0 in
00:50 90.3 °F 36.4 °F 29.74 in North 3 mph 10 mph 15% 0 in
00:55 89.7 °F 35.9 °F 29.74 in NE 8.1 mph 9.2 mph 15% 0 in
01:00 89.5 °F 35.8 °F 29.74 in NNE 7 mph 10 mph 15% 0 in
01:05 89.3 °F 35.6 °F 29.74 in NE 6 mph 8.1 mph 15% 0 in
01:10 89.1 °F 35.4 °F 29.74 in North 7 mph 12 mph 15% 0 in
01:15 88.7 °F 35.1 °F 29.74 in NNW 5.5 mph 6.9 mph 15% 0 in
01:20 88.5 °F 36.6 °F 29.74 in North 5 mph 12 mph 16% 0 in
01:25 88.7 °F 35.1 °F 29.74 in North 6.1 mph 9.2 mph 15% 0 in
01:30 88.5 °F 34.9 °F 29.74 in NNE 5 mph 12 mph 15% 0 in
01:35 88.3 °F 34.8 °F 29.74 in NNW 7.4 mph 9.2 mph 15% 0 in
01:40 88.2 °F 34.7 °F 29.74 in NNE 5 mph 10 mph 15% 0 in
01:45 88 °F 34.5 °F 29.74 in NE 5.8 mph 8.1 mph 15% 0 in
01:50 87.9 °F 34.5 °F 29.74 in North 7 mph 10 mph 15% 0 in
01:55 88.2 °F 33 °F 29.74 in NNE 6 mph 9.2 mph 14% 0 in
02:00 88.4 °F 33.1 °F 29.74 in NNE 7 mph 14 mph 14% 0 in
02:05 88.3 °F 33.1 °F 29.74 in North 7.1 mph 9.2 mph 14% 0 in
02:10 88.3 °F 33.1 °F 29.74 in North 6 mph 10 mph 14% 0 in
02:15 88.2 °F 33 °F 29.74 in NNE 6.6 mph 8.1 mph 14% 0 in
02:20 88.1 °F 32.9 °F 29.74 in North 5 mph 12 mph 14% 0 in
02:25 88.1 °F 34.6 °F 29.74 in North 6.1 mph 8.1 mph 15% 0 in
02:30 87.9 °F 34.5 °F 29.74 in NNE 6 mph 9 mph 15% 0 in
02:35 88 °F 34.5 °F 29.75 in NE 4.5 mph 4.6 mph 15% 0 in
02:40 87.8 °F 34.4 °F 29.75 in North 3 mph 9 mph 15% 0 in
02:45 87.7 °F 34.3 °F 29.75 in NE 6.4 mph 9.2 mph 15% 0 in
02:50 87.7 °F 34.3 °F 29.75 in North 3 mph 10 mph 15% 0 in
02:55 87.7 °F 34.3 °F 29.75 in NNE 5.5 mph 8.1 mph 15% 0 in
03:00 87.9 °F 34.5 °F 29.75 in NNE 7 mph 9 mph 15% 0 in
03:05 88 °F 34.5 °F 29.75 in NNE 7 mph 9.2 mph 15% 0 in
03:10 88 °F 34.5 °F 29.75 in NNE 5 mph 9 mph 15% 0 in
03:15 87.5 °F 34.1 °F 29.75 in North 1.3 mph 2.3 mph 15% 0 in
03:20 87 °F 33.8 °F 29.75 in NNE 5 mph 7 mph 15% 0 in
03:25 86.8 °F 33.6 °F 29.75 in North 5.2 mph 9.2 mph 15% 0 in
03:30 86.6 °F 33.4 °F 29.74 in NNE 5 mph 9 mph 15% 0 in
03:35 86.2 °F 33.1 °F 29.75 in NNE 3.8 mph 6.9 mph 15% 0 in
03:40 86.2 °F 33.1 °F 29.75 in NNE 6 mph 12 mph 15% 0 in
03:45 86.2 °F 33.1 °F 29.75 in ENE 3.5 mph 4.6 mph 15% 0 in
03:50 85.7 °F 32.7 °F 29.75 in NNE 7 mph 12 mph 15% 0 in
03:55 86 °F 33 °F 29.75 in North 8.9 mph 11.5 mph 15% 0 in
04:00 86.6 °F 31.7 °F 29.75 in North 6 mph 12 mph 14% 0 in
04:05 86.2 °F 31.4 °F 29.75 in North 6.3 mph 9.2 mph 14% 0 in
04:10 85.9 °F 31.2 °F 29.75 in North 6 mph 10 mph 14% 0 in
04:15 85.9 °F 32.9 °F 29.75 in NNW 6.5 mph 10.4 mph 15% 0 in
04:20 85.9 °F 32.9 °F 29.75 in NNE 6 mph 10 mph 15% 0 in
04:25 85.6 °F 32.6 °F 29.75 in North 4.9 mph 8.1 mph 15% 0 in
04:30 85.4 °F 32.5 °F 29.75 in North 5 mph 12 mph 15% 0 in
04:35 85.4 °F 32.5 °F 29.76 in NW 5.4 mph 9.2 mph 15% 0 in
04:40 85.8 °F 31 °F 29.76 in North 9 mph 12 mph 14% 0 in
04:45 86.6 °F 31.7 °F 29.76 in NE 3.9 mph 5.8 mph 14% 0 in
04:50 87 °F 30.2 °F 29.76 in North 3 mph 9 mph 13% 0 in
04:55 87.1 °F 30.3 °F 29.76 in North 2.8 mph 4.6 mph 13% 0 in
05:00 86.4 °F 31.6 °F 29.76 in North 3 mph 6 mph 14% 0 in
05:05 86 °F 31.2 °F 29.77 in NNE 1.1 mph 2.3 mph 14% 0 in
05:10 85.8 °F 31.1 °F 29.77 in North 1 mph 7 mph 14% 0 in
05:15 85.4 °F 30.8 °F 29.77 in East 1 mph 1.2 mph 14% 0 in
05:20 85 °F 30.4 °F 29.77 in Calm   1 mph 14% 0 in
05:25 85.1 °F 30.5 °F 29.77 in NNE 2 mph 2.3 mph 14% 0 in
05:30 85.3 °F 30.7 °F 29.77 in NNE 1 mph 3 mph 14% 0 in
05:35 84.8 °F 30.3 °F 29.77 in North 1.5 mph 2.3 mph 14% 0 in
05:40 84.4 °F 31.7 °F 29.77 in North 2 mph 4 mph 15% 0 in
05:45 84.3 °F 31.6 °F 29.77 in North 2.3 mph 3.5 mph 15% 0 in
05:50 84.7 °F 31.9 °F 29.77 in North 3.7 mph 5.8 mph 15% 0 in
05:55 84.7 °F 30.2 °F 29.77 in North 4.1 mph 4.6 mph 14% 0 in
06:00 84.5 °F 30.1 °F 29.77 in North 5 mph 7 mph 14% 0 in
06:05 84.6 °F 30.1 °F 29.77 in NNW 4.4 mph 5 mph 14% 0 in
06:10 84.6 °F 30.1 °F 29.77 in NNE 5 mph 6 mph 14% 0 in
06:15 84.4 °F 31.7 °F 29.77 in ENE 3.3 mph 3.5 mph 15% 0 in
06:20 84.8 °F 30.3 °F 29.77 in NNE 3 mph 9 mph 14% 0 in
06:25 84.8 °F 30.3 °F 29.77 in North 3.8 mph 5.8 mph 14% 0 in
06:30 84.8 °F 32 °F 29.77 in North 3 mph 7 mph 15% 0 in
06:35 84.9 °F 32.1 °F 29.77 in NE 3.4 mph 4.6 mph 15% 0 in
06:40 84.9 °F 32.1 °F 29.77 in NNE 3 mph 7 mph 15% 0 in
06:45 85.1 °F 32.2 °F 29.77 in North 5.8 mph 6.9 mph 15% 0 in
06:50 85.1 °F 30.5 °F 29.77 in NNE 5 mph 9 mph 14% 0 in
06:55 85.3 °F 30.7 °F 29.78 in North 3.4 mph 4.6 mph 14% 0 in
07:00 85.5 °F 30.8 °F 29.78 in North 3 mph 8 mph 14% 0 in
07:05 85.8 °F 31.1 °F 29.78 in NE 4 mph 4.6 mph 14% 0 in
07:10 85.9 °F 31.2 °F 29.78 in NNE 3 mph 8 mph 14% 0 in
07:15 86.2 °F 31.4 °F 29.79 in NE 3.8 mph 5.8 mph 14% 0 in
07:20 86.6 °F 31.7 °F 29.79 in North 5 mph 7 mph 14% 0 in
07:25 87 °F 32 °F 29.79 in North 3.7 mph 4.6 mph 14% 0 in
07:30 87.2 °F 32.2 °F 29.79 in North 3 mph 9 mph 14% 0 in
07:35 87.9 °F 32.7 °F 29.80 in NNE 3.9 mph 6.9 mph 14% 0 in
07:40 88.7 °F 31.5 °F 29.80 in North 5 mph 9 mph 13% 0 in
07:45 89.3 °F 32 °F 29.80 in NNE 6.3 mph 8.1 mph 13% 0 in
07:50 89.9 °F 32.4 °F 29.80 in NNE 5 mph 8 mph 13% 0 in
07:55 90.6 °F 31 °F 29.80 in NNE 2.5 mph 3.5 mph 12% 0 in
08:00 91.3 °F 31.6 °F 29.80 in North 3 mph 6 mph 12% 0 in
08:05 92.1 °F 32.2 °F 29.80 in NNE 4.4 mph 5.8 mph 12% 0 in
08:10 92.7 °F 32.7 °F 29.80 in NNE 3 mph 7 mph 12% 0 in
08:15 93.7 °F 33.4 °F 29.80 in North 1.3 mph 2.3 mph 12% 0 in
08:20 94.4 °F 31.8 °F 29.80 in North 2 mph 6 mph 11% 0 in
08:25 95.2 °F 32.4 °F 29.80 in NNE 1.6 mph 2.3 mph 11% 0 in
08:30 95.7 °F 32.8 °F 29.80 in North 1 mph 6 mph 11% 0 in
08:35 96.4 °F 33.3 °F 29.80 in NE 1 mph 3 mph 11% 0 in
08:40 96.8 °F 33.6 °F 29.80 in North 1 mph 4 mph 11% 0 in
08:45 97.3 °F 34 °F 29.80 in NNE 0.8 mph 1.2 mph 11% 0 in
08:50 98.3 °F 32.4 °F 29.80 in Calm   3 mph 10% 0 in
08:55 99.6 °F 38 °F 29.80 in SSW 2.1 mph 3.5 mph 12% 0 in
09:00 99.8 °F 35.9 °F 29.80 in South 1 mph 3 mph 11% 0 in
09:05 100.8 °F 36.7 °F 29.80 in SSW 1.2 mph 2.3 mph 11% 0 in
09:10 100.4 °F 38.6 °F 29.80 in Calm   3 mph 12% 0 in
09:15 100.6 °F 36.5 °F 29.80 in SSW 1.3 mph 3.5 mph 11% 0 in
09:20 100.6 °F 36.5 °F 29.80 in SSW 2 mph 3 mph 11% 0 in
09:25 100.8 °F 36.7 °F 29.80 in SSW 1.3 mph 2.3 mph 11% 0 in
09:30 101.2 °F 34.6 °F 29.80 in SSW 2 mph 4 mph 10% 0 in
09:35 101.3 °F 34.7 °F 29.80 in SW 0.7 mph 1.2 mph 10% 0 in
09:40 101.4 °F 34.7 °F 29.80 in South 2 mph 4 mph 10% 0 in
09:45 101.4 °F 37.1 °F 29.80 in SW 2.6 mph 3.5 mph 11% 0 in
09:50 101.8 °F 37.4 °F 29.81 in South 2 mph 5 mph 11% 0 in
09:55 102.1 °F 35.3 °F 29.81 in ESE 1.2 mph 3.5 mph 10% 0 in
10:00 102.2 °F 37.8 °F 29.81 in South 2 mph 7 mph 11% 0 in
10:05 102.6 °F 38.1 °F 29.81 in WNW 0.7 mph 1.2 mph 11% 0 in
10:10 103.3 °F 38.6 °F 29.81 in SSE 1 mph 4 mph 11% 0 in
10:15 103.7 °F 36.5 °F 29.81 in SSW 0.4 mph 1.2 mph 10% 0 in
10:20 104.1 °F 36.8 °F 29.80 in SSW 2 mph 4 mph 10% 0 in
10:25 103.7 °F 36.5 °F 29.80 in SSW 1.7 mph 6 mph 10% 0 in
10:30 103.3 °F 36.2 °F 29.80 in South 3 mph 6 mph 10% 0 in
10:35 103.1 °F 36 °F 29.80 in SSE 4.2 mph 6.9 mph 10% 0 in
10:40 103.3 °F 36.1 °F 29.80 in SSE 1 mph 8 mph 10% 0 in
10:45 104.2 °F 36.8 °F 29.80 in ESE 3 mph 4.6 mph 10% 0 in
10:50 104.1 °F 36.7 °F 29.80 in SSW 1 mph 6 mph 10% 0 in
10:55 104.3 °F 34.3 °F 29.80 in NE 1.2 mph 2.3 mph 9% 0 in
11:00 104.5 °F 37.1 °F 29.80 in SSW 3 mph 6 mph 10% 0 in
11:05 104.3 °F 34.3 °F 29.80 in SW 3.8 mph 6.9 mph 9% 0 in
11:10 104.3 °F 36.9 °F 29.80 in SSW 3 mph 8 mph 10% 0 in
11:15 104.4 °F 37 °F 29.79 in SSW 1.4 mph 2.3 mph 10% 0 in
11:20 105 °F 37.4 °F 29.79 in South 1 mph 5 mph 10% 0 in
11:25 105.3 °F 35 °F 29.79 in SE 3.7 mph 8.1 mph 9% 0 in
11:30 105.4 °F 35.1 °F 29.79 in Calm   8 mph 9% 0 in
11:35 106 °F 35.5 °F 29.78 in SW 2.5 mph 3.5 mph 9% 0 in
11:40 106.2 °F 35.7 °F 29.78 in SSW 2 mph 5 mph 9% 0 in
11:45 106.8 °F 36.1 °F 29.78 in South 2.9 mph 4.6 mph 9% 0 in
11:50 106.8 °F 33.2 °F 29.78 in SSW 1 mph 5 mph 8% 0 in
11:55 107 °F 33.3 °F 29.77 in SE 3.5 mph 3.5 mph 8% 0 in
12:00 107.5 °F 30.3 °F 29.77 in SSE 3 mph 7 mph 7% 0 in
12:05 107.1 °F 26.3 °F 29.77 in SE 3.3 mph 5.8 mph 6% 0 in
12:10 107.1 °F 30.1 °F 29.77 in SSE 1 mph 7 mph 7% 0 in
12:15 107.3 °F 30.2 °F 29.77 in SSW 7 mph 10.4 mph 7% 0 in
12:20 107.3 °F 30.2 °F 29.77 in SSW 5 mph 10 mph 7% 0 in
12:25 107 °F 30 °F 29.77 in SSW 3.4 mph 5.8 mph 7% 0 in
12:30 106.9 °F 29.9 °F 29.76 in SSE 1 mph 6 mph 7% 0 in
12:35 107.3 °F 33.5 °F 29.76 in South 5.6 mph 8.1 mph 8% 0 in
12:40 107.1 °F 30 °F 29.76 in South 1 mph 8 mph 7% 0 in
12:45 107.2 °F 30.1 °F 29.76 in SSW 0.6 mph 1.2 mph 7% 0 in
12:50 108.1 °F 30.8 °F 29.76 in SSW 2 mph 6 mph 7% 0 in
12:55 108.6 °F 31.1 °F 29.75 in SW 1.7 mph 3.5 mph 7% 0 in
13:00 109.2 °F 31.6 °F 29.75 in SSW 5 mph 7 mph 7% 0 in
13:05 108.7 °F 31.2 °F 29.75 in SSE 4.4 mph 8.1 mph 7% 0 in
13:10 108.3 °F 31 °F 29.75 in SSW 6 mph 12 mph 7% 0 in
13:15 108.2 °F 30.9 °F 29.75 in WSW 4.5 mph 4.6 mph 7% 0 in
13:20 108.6 °F 31.1 °F 29.75 in WSW 2 mph 7 mph 7% 0 in
13:25 108.9 °F 31.4 °F 29.74 in SSW 4.8 mph 9.2 mph 7% 0 in
13:30 108.3 °F 30.9 °F 29.74 in South 6 mph 10 mph 7% 0 in
13:35 108.4 °F 31 °F 29.74 in SSE 4 mph 6.9 mph 7% 0 in
13:40 108.6 °F 27.3 °F 29.74 in South 5 mph 13 mph 6% 0 in
13:45 108.7 °F 27.4 °F 29.74 in SE 3.2 mph 4.6 mph 6% 0 in
13:50 109.1 °F 23.3 °F 29.73 in South 2 mph 8 mph 5% 0 in
13:55 108.8 °F 27.5 °F 29.73 in SW 6.5 mph 11.5 mph 6% 0 in
14:00 108.2 °F 27.1 °F 29.73 in SSW 3 mph 12 mph 6% 0 in
14:05 108.4 °F 27.2 °F 29.73 in SE 5.2 mph 8.1 mph 6% 0 in
14:10 108.3 °F 27.1 °F 29.72 in SSW 1 mph 9 mph 6% 0 in
14:15 108.9 °F 27.6 °F 29.72 in South 2.2 mph 3.5 mph 6% 0 in
14:20 109.3 °F 27.9 °F 29.72 in SSW 3 mph 12 mph 6% 0 in
14:25 108.7 °F 23 °F 29.71 in SSE 5.7 mph 10.4 mph 5% 0 in
14:30 108.9 °F 17.9 °F 29.71 in SSW 1 mph 10 mph 4% 0 in
14:35 109.4 °F 18.3 °F 29.71 in SW 3.3 mph 4.6 mph 4% 0 in
14:40 109.2 °F 18.1 °F 29.71 in SSW 3 mph 7 mph 4% 0 in
14:45 109.1 °F 18.1 °F 29.70 in SE 1.2 mph 2.3 mph 4% 0 in
14:50 109.6 °F 18.4 °F 29.70 in Calm   6 mph 4% 0 in
14:55 109.9 °F 23.9 °F 29.70 in ESE 0.6 mph 2.3 mph 5% 0 in
15:00 109.9 °F 23.9 °F 29.69 in SSW 5 mph 8 mph 5% 0 in
15:05 109.5 °F 23.6 °F 29.69 in SSW 3.4 mph 9 mph 5% 0 in
15:10 109.3 °F 23.5 °F 29.69 in SW 3 mph 9 mph 5% 0 in
15:15 109.3 °F 23.5 °F 29.68 in SW 4.3 mph 12 mph 5% 0 in
15:20 109.2 °F 23.4 °F 29.69 in SSW 5 mph 12 mph 5% 0 in
15:25 109 °F 23.3 °F 29.68 in South 3.5 mph 10.4 mph 5% 0 in
15:30 108.8 °F 27.5 °F 29.68 in Calm   10 mph 6% 0 in
15:35 108.5 °F 22.9 °F 29.67 in NW 1.4 mph 2.3 mph 5% 0 in
15:40 109.2 °F 23.4 °F 29.67 in NNW 1 mph 3 mph 5% 0 in
15:45 109.6 °F 23.7 °F 29.67 in SW 1.6 mph 3.5 mph 5% 0 in
15:50 109 °F 23.3 °F 29.67 in South 3 mph 9 mph 5% 0 in
15:55 109 °F 27.6 °F 29.67 in SSW 2.9 mph 6.9 mph 6% 0 in
16:00 108.4 °F 22.8 °F 29.67 in South 3 mph 10 mph 5% 0 in
16:05 107.9 °F 26.9 °F 29.67 in SW 1.7 mph 3.5 mph 6% 0 in
16:10 108.5 °F 22.9 °F 29.66 in SSW 5 mph 10 mph 5% 0 in
16:15 108.7 °F 23 °F 29.66 in SSW 5.1 mph 10.4 mph 5% 0 in
16:20 108.3 °F 22.8 °F 29.66 in SSW 7 mph 13 mph 5% 0 in
Anthen North Phoenix Weather
Compliments of Weather Underground - 2 mb